Location: Bothwell
(42.3833°S, 147.0000°E)
Time: 11:39:11
(UTC+11:00)

CUBEBUG 2 - Pass Details

Date: 05 October 2023
Orbit: 575 x 676 km, 97.8° (Epoch: 04 December)

Event Time Altitude Azimuth Distance (km) Brightness Sun altitude
Exits shadow 01:58:26 12° 170° (S) 2,034 ? -41.4°
Drops below altitude 10° 01:58:44 10° 172° (S) 2,141 ? -41.4°
Sets 02:01:11 0° 182° (S) 3,053 ? -41.2°
